Location: Mahannah Oil Field
(37.4664°N, 96.6003°W)
Time: 04:26:33
(UTC+00:00)

deb Explorer IX - Pass Details

Date: 21 June 2021
Orbit: 544 x 1093 km, 38.8° (Epoch: 02 August)

Event Time Altitude Azimuth Distance (km) Brightness Sun altitude
Exits shadow 09:54:22 - 180° (S) 2,255 ? -12.2°
Reaches altitude 10° 09:55:53 10° 164° (SSE) 1,954 ? -12.0°
Maximum altitude 09:57:19 11° 145° (SE) 1,829 ? -11.8°
Drops below altitude 10° 09:58:43 10° 126° (SE) 1,889 ? -11.5°
Sets 10:02:25 0° 91° (E) 2,725 ? -11.0°
